Regional Weather Roundup
Issued by NWS

Home | Current Version | Previous Version | Graphics & Text | Print | Product List | Glossary On
Versions: 1 2 3 4 5 6 7 8 9 10 11 12 13 14 15 16 17 18 19 20 21 22 23 24 25 26 27 28 29 30 31 32 33 34 35 36 37 38 39 40 41 42 43 44 45 46 47 48 49 50
000
ASUS43 KLMK 130310
RWRKY
KENTUCKY REGIONAL WEATHER ROUNDUP
NATIONAL WEATHER SERVICE LOUISVILLE KY
1000 PM EST TUE DEC 12 2017

NOTE "FAIR" INDICATES FEW OR NO CLOUDS BELOW 12,000 FEET
WITH NO SIGNIFICANT WEATHER AND/OR OBSTRUCTIONS TO VISIBILITY.

KYZ001>023-026-027-061>063-070>075-130400-
WESTERN AND SOUTH CENTRAL KENTUCKY

CITY           SKY/WX    TMP DP  RH WIND       PRES   REMARKS
PADUCAH        CLEAR     25  14  63 W3        30.13S
HENDERSON      CLEAR     24  15  68 SW3       30.12S
OWENSBORO      CLEAR     22  15  75 SW6       30.11F WCI  14
HOPKINSVILLE   CLEAR     29   6  37 CALM      30.11F
BOWLING GREEN  CLEAR     27  10  49 W3        30.11F
GLASGOW        CLEAR     24  12  60 CALM      30.09F
$$

KYZ024-025-028>034-038-045-046-053-130400-
NORTH CENTRAL KENTUCKY

CITY           SKY/WX    TMP DP  RH WIND       PRES   REMARKS
LOUISVILLE/SDF CLEAR     25   9  50 W8        30.07S WCI  16
LOUISVILLE/LOU CLEAR     25  10  53 W8        30.07F WCI  16
FORT KNOX      CLEAR     21   8  58 W6        30.05S WCI  13
$$

KYZ035>037-039>044-047>052-055>060-089>105-130400-
NORTHEAST KENTUCKY

CITY           SKY/WX    TMP DP  RH WIND       PRES   REMARKS
LEXINGTON      CLEAR     22   7  52 W7        30.03S WCI  13
COVINGTON      CLEAR     20   9  62 NW9       30.00S WCI   9
FRANKFORT      CLEAR     23   5  46 W3        30.03S
$$

KYZ054-064>069-076>088-106>120-130400-
SOUTHEAST KENTUCKY

CITY           SKY/WX    TMP DP  RH WIND       PRES   REMARKS
JACKSON        CLEAR     23   7  50 W8G20     29.98R WCI  14
LONDON         CLEAR     25   5  42 NW7       30.03R WCI  17
SOMERSET       CLEAR     27   9  46 W6        30.07S WCI  20
MIDDLESBORO    CLEAR     27   5  39 NW9       30.03R WCI  18
MONTICELLO     CLEAR     25  12  58 NW7       30.08S WCI  17
$$





USA.gov is the U.S. government's official web portal to all federal, state and local government web resources and services.